Location: Banksville Park
(38.5557°N, 75.1182°W)
Time: 03:22:05
(UTC+00:00)

Cosmos 1092 Rocket - Pass Details

Date: 19 September 2020
Orbit: 954 x 995 km, 82.9° (Epoch: 19 October)

Event Time Altitude Azimuth Distance (km) Brightness Sun altitude
Rises 01:05:18 0° 356° (N) 3,641 7.3 -24.1°
Reaches altitude 10° 01:07:50 10° 360° (N) 2,694 6.6 -24.5°
Maximum altitude 01:13:56 62° 81° (E) 1,071 3.9 -25.6°
Enters shadow 01:14:16 61° 98° (E) 1,080 3.9 -25.7°
